Weather History for Duluth, MN

Change the Weather History Date:

Monday, March 31, 2014

  Actual Average Record
Temperature  
Mean Temperature 36 °F 32 °F  
Max Temperature 40 °F 41 °F 71 °F (1986)
Min Temperature 32 °F 24 °F -6 °F (1923)
Degree Days  
Heating Degree Days 29 33  
Month to date heating degree days 1439 1212  
Since 1 July heating degree days 8880 8077  
Cooling Degree Days 0 0  
Month to date cooling degree days 0 0  
Year to date cooling degree days 0 0  
Moisture  
Dew Point 30 °F    
Average Humidity 78    
Maximum Humidity 92    
Minimum Humidity 64    
Precipitation  
Precipitation 0.39 in 0.06 in 1.09 in (1946)
Month to date precipitation 1.91 1.49  
Year to date precipitation 4.76 3.26  
Snow  
Snow 0.00 in 0.30 in 6.20 in (2009)
Month to date snowfall 20.9 13.2  
Since 1 July snowfall 104.7 78.8  
Snow Depth 25.00 in    
Sea Level Pressure  
Sea Level Pressure 29.65 in    
Wind  
Wind Speed 19 mph (ENE)    
Max Wind Speed 31 mph    
Max Gust Speed 38 mph    
Visibility 5 miles    
Events Rain    
T = Trace of Precipitation, MM = Missing Value Source: NWS Daily Summary

Daily Weather History Graph

Daily Weather History Graph

Search for Another Location

Airport:

Trip Planner

Search our weather history database for the weather conditions in past years. The results will help you decide how hot, cold, wet, or windy it might be!

Date:

Astronomy

Mar. 31, 2014 Rise Set
Actual Time 6:49 AM CDT 7:36 PM CDT
Civil Twilight 6:19 AM CDT 8:07 PM CDT
Nautical Twilight 5:42 AM CDT 8:44 PM CDT
Astronomical Twilight 5:04 AM CDT 9:22 PM CDT
Moon 7:09 AM CDT (3/31) 9:01 PM CDT (3/31)
Length of Visible Light 13h 48m
Length of Day
12h 46m
New Moon, 1% of the Moon is Illuminated
Mar 31
New Moon
Apr 7
First Quarter
Apr 15
Full
Apr 22
Last Quarter
Apr 29
New

Hourly Weather History & Observations

Time (CDT) Temp. Windchill Dew Point Humidity Pressure Visibility Wind Dir Wind Speed Gust Speed Precip Events Conditions
12:55 AM 39.9 °F 32.1 °F 28.9 °F 65% 29.91 in 7.0 mi East 13.8 mph - N/A   Mostly Cloudy
1:55 AM 39.9 °F 32.1 °F 28.9 °F 65% 29.89 in 7.0 mi East 13.8 mph - N/A   Clear
2:55 AM 39.9 °F 32.9 °F 28.9 °F 65% 29.88 in 8.0 mi East 11.5 mph - N/A   Clear
3:55 AM 39.0 °F 29.6 °F 28.9 °F 67% 29.85 in 8.0 mi East 18.4 mph - N/A   Scattered Clouds
4:55 AM 37.9 °F 28.2 °F 28.9 °F 70% 29.84 in 9.0 mi East 18.4 mph - N/A   Clear
5:55 AM 37.0 °F 27.4 °F 28.9 °F 73% 29.85 in 10.0 mi East 17.3 mph 23.0 mph N/A   Clear
6:55 AM 36.0 °F 25.3 °F 28.0 °F 73% 29.84 in 10.0 mi East 19.6 mph - N/A   Partly Cloudy
7:55 AM 35.1 °F 23.3 °F 28.0 °F 76% 29.81 in 10.0 mi East 23.0 mph - N/A   Scattered Clouds
8:55 AM 35.1 °F 24.1 °F 28.9 °F 78% 29.82 in 7.0 mi East 19.6 mph 26.5 mph N/A   Scattered Clouds
9:55 AM 35.1 °F 23.0 °F 28.9 °F 78% 29.83 in 9.0 mi East 24.2 mph 31.1 mph N/A   Overcast
10:55 AM 36.0 °F 25.3 °F 30.0 °F 79% 29.79 in 9.0 mi East 19.6 mph 28.8 mph N/A   Overcast
11:55 AM 37.0 °F 26.4 °F 30.0 °F 76% 29.78 in 8.0 mi East 20.7 mph 27.6 mph N/A   Overcast
12:55 PM 36.0 °F 24.7 °F 30.0 °F 79% 29.76 in 2.5 mi East 21.9 mph 27.6 mph 0.00 in Rain Light Rain
1:02 PM 35.1 °F 23.0 °F 30.0 °F 82% 29.71 in 3.0 mi East 24.2 mph 33.4 mph 0.01 in Rain Light Rain
1:14 PM 35.1 °F 23.3 °F 30.0 °F 82% 29.71 in 2.0 mi East 23.0 mph 29.9 mph 0.02 in Rain Light Rain
1:44 PM 34.0 °F 22.1 °F 30.0 °F 85% 29.68 in 2.0 mi East 21.9 mph 32.2 mph 0.09 in Rain Light Rain
1:55 PM 34.0 °F 21.5 °F 30.0 °F 85% 29.72 in 2.0 mi East 24.2 mph 29.9 mph 0.10 in Rain Light Rain
2:02 PM 34.0 °F 22.4 °F 30.0 °F 85% 29.66 in 2.5 mi ENE 20.7 mph 32.2 mph 0.00 in Rain Light Rain
2:51 PM 33.8 °F 20.8 °F 30.2 °F 87% 29.62 in 1.5 mi East 26.5 mph 36.8 mph 0.02 in Rain Light Rain
2:55 PM 33.1 °F 19.3 °F 30.0 °F 89% 29.67 in 1.2 mi East 28.8 mph 36.8 mph 0.02 in Rain Light Rain
3:28 PM 33.1 °F 20.1 °F 30.0 °F 89% 29.61 in 1.8 mi East 25.3 mph 32.2 mph 0.02 in Rain Light Rain
3:55 PM 32.0 °F 18.4 °F 30.0 °F 92% 29.65 in 1.8 mi East 26.5 mph 34.5 mph 0.03 in   Overcast
4:04 PM 32.0 °F 19.2 °F 30.0 °F 92% 29.59 in 2.0 mi East 23.0 mph 33.4 mph N/A   Overcast
4:55 PM 33.1 °F 20.6 °F 30.0 °F 89% 29.60 in 2.5 mi East 23.0 mph 31.1 mph N/A   Overcast
5:55 PM 33.1 °F 21.9 °F 30.0 °F 89% 29.60 in 2.5 mi East 18.4 mph 32.2 mph N/A   Overcast
6:11 PM 33.1 °F 21.5 °F 30.0 °F 89% 29.55 in 3.0 mi East 19.6 mph 31.1 mph N/A   Overcast
6:55 PM 32.0 °F 18.6 °F 30.0 °F 92% 29.59 in 3.0 mi East 25.3 mph 33.4 mph N/A   Overcast
7:29 PM 33.1 °F 20.9 °F 30.0 °F 89% 29.53 in 2.5 mi ENE 21.9 mph 32.2 mph N/A   Overcast
7:40 PM 33.1 °F 21.2 °F 30.0 °F 89% 29.52 in 4.0 mi ENE 20.7 mph - N/A   Overcast
7:55 PM 33.1 °F 22.2 °F 30.0 °F 89% 29.57 in 4.0 mi East 17.3 mph 29.9 mph N/A   Overcast
8:24 PM 33.1 °F 21.5 °F 30.0 °F 89% 29.50 in 6.0 mi East 19.6 mph 27.6 mph N/A   Overcast
8:55 PM 33.1 °F 22.6 °F 30.0 °F 89% 29.55 in 7.0 mi East 16.1 mph 29.9 mph N/A   Overcast
9:23 PM 33.1 °F 20.9 °F 30.0 °F 89% 29.49 in 2.0 mi East 21.9 mph 28.8 mph 0.04 in Rain Light Rain
9:31 PM 33.1 °F 21.2 °F 30.0 °F 89% 29.49 in 2.0 mi East 20.7 mph - 0.06 in Rain Light Freezing Rain
9:38 PM 33.1 °F 21.9 °F 30.0 °F 89% 29.48 in 3.0 mi East 18.4 mph 27.6 mph 0.09 in Rain Light Freezing Rain
9:47 PM 33.1 °F 24.4 °F 30.9 °F 92% 29.49 in 6.0 mi East 11.5 mph 23.0 mph 0.10 in Rain Light Freezing Rain
9:55 PM 34.0 °F 22.7 °F 30.9 °F 89% 29.53 in 7.0 mi ENE 19.6 mph 25.3 mph 0.10 in   Overcast
10:13 PM 34.0 °F 25.0 °F 30.9 °F 89% 29.47 in 6.0 mi East 12.7 mph 25.3 mph 0.00 in Rain Light Freezing Rain
10:33 PM 34.0 °F 24.2 °F 30.9 °F 89% 29.47 in 6.0 mi ENE 15.0 mph - 0.00 in   Overcast
10:55 PM 34.0 °F 27.2 °F 30.9 °F 89% 29.52 in 6.0 mi NE 8.1 mph - 0.00 in   Overcast
11:05 PM 34.0 °F 29.8 °F 30.9 °F 89% 29.48 in 3.0 mi ESE 4.6 mph - 0.01 in Rain Light Freezing Rain
11:12 PM 34.0 °F 26.6 °F 30.9 °F 89% 29.47 in 3.0 mi NE 9.2 mph - 0.05 in Rain Light Freezing Rain
11:19 PM 34.0 °F 26.6 °F 30.9 °F 89% 29.47 in 2.5 mi NE 9.2 mph - 0.06 in Rain Light Freezing Rain
11:44 PM 34.0 °F 25.0 °F 30.9 °F 89% 29.43 in 2.0 mi NE 12.7 mph - 0.12 in Rain Light Freezing Rain
11:55 PM 34.0 °F 24.2 °F 30.9 °F 89% 29.47 in 3.0 mi NE 15.0 mph - 0.13 in Rain Light Freezing Rain